TimeHAST,TemperatureF,Dew PointF,Humidity,Sea Level PressureIn,VisibilityMPH,Wind Direction,Wind SpeedMPH,Gust SpeedMPH,PrecipitationIn,Events,Conditions,WindDirDegrees,DateUTC
12:01 AM,44.1,39.9,85,29.64,2.0,West,17.3,28.8,0.07,Rain,Light Rain,260,2012-11-10 10:01:00
12:24 AM,44.6,39.2,81,29.37,3.0,West,19.6,27.6,0.02,Rain,Light Rain,280,2012-11-10 10:24:00
12:37 AM,44.6,39.2,81,29.38,2.0,West,21.9,31.1,0.02,Rain,Light Rain,280,2012-11-10 10:37:00
1:01 AM,43.0,39.0,86,29.65,2.0,West,15.0,33.4,0.04,Rain,Light Rain,270,2012-11-10 11:01:00
2:01 AM,43.0,39.0,86,29.68,2.0,West,17.3,25.3,0.02,Rain,Light Rain,280,2012-11-10 12:01:00
2:14 AM,42.8,39.2,87,29.40,1.8,West,25.3,32.2,0.01,Rain,Rain,260,2012-11-10 12:14:00
2:37 AM,42.8,39.2,87,29.41,2.0,WNW,16.1,25.3,0.03,Rain,Light Rain,290,2012-11-10 12:37:00
3:01 AM,43.0,39.9,89,29.71,2.0,West,16.1,32.2,0.04,Rain,Light Rain,270,2012-11-10 13:01:00
4:01 AM,43.0,39.0,86,29.73,2.5,West,21.9,38.0,0.02,Rain,Light Rain,270,2012-11-10 14:01:00
5:26 AM,42.8,37.4,81,29.46,3.0,West,26.5,42.6,0.00,Rain,Light Rain,270,2012-11-10 15:26:00
6:01 AM,43.0,37.9,82,29.75,6.0,WSW,26.5,43.7,0.00,Rain,Light Rain,250,2012-11-10 16:01:00
6:39 AM,42.8,37.4,81,29.46,5.0,WSW,33.4,48.3,0.00,Rain,Light Rain,250,2012-11-10 16:39:00
7:01 AM,43.0,37.0,80,29.76,7.0,WSW,34.5,47.2,0.00,Rain,Light Rain,240,2012-11-10 17:01:00
7:19 AM,42.8,37.4,81,29.49,6.0,WSW,31.1,46.0,0.00,Rain,Light Rain,240,2012-11-10 17:19:00
7:35 AM,42.8,37.4,81,29.50,5.0,West,33.4,48.3,0.00,,Haze,260,2012-11-10 17:35:00
8:01 AM,43.0,36.0,76,29.78,6.0,WSW,32.2,49.5,0.00,,Haze,250,2012-11-10 18:01:00
9:01 AM,44.1,36.0,73,29.85,10.0,West,11.5,20.7,N/A,,Overcast,270,2012-11-10 19:01:00
10:01 AM,44.1,36.0,73,29.86,10.0,WSW,11.5,35.7,N/A,,Overcast,250,2012-11-10 20:01:00
11:01 AM,44.1,35.1,71,29.87,10.0,WSW,19.6,36.8,N/A,,Overcast,250,2012-11-10 21:01:00
11:15 AM,44.6,35.6,71,29.59,10.0,West,20.7,27.6,N/A,,Mostly Cloudy,270,2012-11-10 21:15:00
12:01 PM,46.9,36.0,66,29.86,10.0,West,17.3,35.7,N/A,,Overcast,260,2012-11-10 22:01:00
1:01 PM,46.9,37.0,68,29.88,10.0,West,19.6,25.3,N/A,,Overcast,280,2012-11-10 23:01:00
2:01 PM,46.9,37.0,68,29.87,10.0,West,18.4,31.1,N/A,,Overcast,260,2012-11-11 00:01:00
3:01 PM,48.0,37.0,66,29.88,10.0,West,25.3,29.9,N/A,,Overcast,270,2012-11-11 01:01:00
4:01 PM,46.9,37.0,68,29.90,10.0,West,12.7,21.9,0.00,Rain,Light Rain,260,2012-11-11 02:01:00
5:01 PM,45.0,37.9,76,29.91,10.0,Variable,4.6,-,0.01,Rain,Light Rain,0,2012-11-11 03:01:00
6:01 PM,45.0,37.9,76,29.93,10.0,Variable,4.6,-,0.00,Rain,Light Rain,0,2012-11-11 04:01:00
7:01 PM,46.0,37.0,71,29.94,10.0,West,17.3,24.2,0.00,,Overcast,260,2012-11-11 05:01:00
8:01 PM,46.0,37.0,71,29.95,10.0,West,16.1,24.2,N/A,,Overcast,260,2012-11-11 06:01:00
9:01 PM,45.0,36.0,71,29.96,10.0,Variable,3.5,-,N/A,,Overcast,0,2012-11-11 07:01:00
10:01 PM,45.0,36.0,71,29.98,10.0,WSW,3.5,-,N/A,,Overcast,240,2012-11-11 08:01:00
11:01 PM,45.0,36.0,71,29.99,10.0,Variable,4.6,-,N/A,,Overcast,0,2012-11-11 09:01:00